Location: Prague
(50.0830°N, 14.4670°E)
Time: 02:28:51
(UTC+01:00)

Oscar 11 - Pass Details

Date: 01 December 2021
Orbit: 611 x 625 km, 97.6° (Epoch: 17 January)

Event Time Altitude Azimuth Distance (km) Brightness Sun altitude
Rises 17:39:10 0° 206° (SSW) 2,895 11.2 -14.7°
Reaches altitude 10° 17:41:54 10° 224° (SW) 1,996 10.6 -15.2°
Maximum altitude 17:45:00 19° 270° (W) 1,499 10.0 -15.6°
Drops below altitude 10° 17:48:08 10° 316° (NW) 2,010 10.1 -16.1°
Sets 17:50:55 0° 334° (NNW) 2,924 10.7 -16.6°
